Lyndonville, VT

11:15 PM EST on January 23, 2018 (GMT -0500)
Lyndonville

Weather History for KCDA - April, 2014

Change the Weather History Date:

Friday, April 25, 2014

  Actual Average (K1V4) Record (K1V4)
Temperature  
Mean Temperature 44 °F -  
Max Temperature 56 °F 55 °F 87 °F (2009)
Min Temperature 31 °F 31 °F 17 °F (1965)
Degree Days  
Heating Degree Days 22    
Moisture  
Dew Point 17 °F    
Average Humidity 38    
Maximum Humidity 71    
Minimum Humidity 13    
Precipitation  
Precipitation 0.00 in - - ()
Sea Level Pressure  
Sea Level Pressure 29.92 in    
Wind  
Wind Speed 3 mph (NNW)    
Max Wind Speed 10 mph    
Max Gust Speed 18 mph    
Visibility 10 miles    
Events      
Averages and records for this station are not official NWS values.
T = Trace of Precipitation, MM = Missing Value Source: NWS Daily Summary

Daily Weather History Graph

Daily Weather History Graph

Search for Another Location

Airport or City:

Trip Planner

Search our weather history database for the weather conditions in past years. The results will help you decide how hot, cold, wet, or windy it might be!

Date:

Astronomy

Apr. 25, 2014 Rise Set
Actual Time 5:47 AM EDT 7:45 PM EDT
Civil Twilight 5:16 AM EDT 8:16 PM EDT
Nautical Twilight 4:37 AM EDT 8:55 PM EDT
Astronomical Twilight 3:55 AM EDT 9:37 PM EDT
Moon 3:43 AM EDT (4/25) 3:55 PM EDT (4/25)
Length of Visible Light 15h 00m
Length of Day
13h 57m
Waning Crescent, 15% of the Moon is Illuminated
Apr 25
Waning Crescent
Apr 29
New
May 6
First Quarter
May 14
Full
May 21
Last Quarter

Hourly Weather History & Observations

Time (EDT) Temp. Windchill Dew Point Humidity Pressure Visibility Wind Dir Wind Speed Gust Speed Precip Events Conditions
12:15 AM 38.8 °F - 24.6 °F 57% 29.95 in 10.0 mi Calm Calm - N/A   Clear
12:35 AM 39.2 °F - 25.0 °F 57% 29.96 in 10.0 mi Calm Calm - N/A   Clear
12:55 AM 38.3 °F 35.9 °F 25.0 °F 59% 29.96 in 10.0 mi NE 3.5 mph - N/A   Clear
1:15 AM 37.8 °F 35.3 °F 25.5 °F 61% 29.96 in 10.0 mi NE 3.5 mph - N/A   Clear
1:35 AM 37.4 °F - 25.3 °F 62% 29.95 in 10.0 mi Calm Calm - N/A   Clear
1:55 AM 37.6 °F 35.1 °F 25.2 °F 61% 29.95 in 10.0 mi NE 3.5 mph - N/A   Clear
2:15 AM 35.8 °F 33.0 °F 24.8 °F 64% 29.94 in 10.0 mi NE 3.5 mph - N/A   Clear
2:35 AM 36.3 °F 33.7 °F 23.9 °F 61% 29.95 in 10.0 mi North 3.5 mph - N/A   Clear
2:55 AM 35.2 °F 32.4 °F 24.6 °F 65% 29.95 in 10.0 mi WNW 3.5 mph - N/A   Clear
3:15 AM 33.4 °F 29.1 °F 24.1 °F 69% 29.96 in 10.0 mi WNW 4.6 mph - N/A   Clear
3:35 AM 32.9 °F 27.5 °F 24.1 °F 70% 29.96 in 10.0 mi WNW 5.8 mph - N/A   Clear
3:55 AM 32.7 °F 27.3 °F 23.9 °F 70% 29.96 in 10.0 mi NW 5.8 mph - N/A   Clear
4:15 AM 33.4 °F 29.1 °F 23.4 °F 67% 29.96 in 10.0 mi West 4.6 mph - N/A   Clear
4:35 AM 32.4 °F 26.9 °F 23.9 °F 71% 29.96 in 10.0 mi West 5.8 mph - N/A   Clear
4:55 AM 32.0 °F 27.5 °F 23.2 °F 70% 29.97 in 10.0 mi NW 4.6 mph - N/A   Clear
5:15 AM 31.1 °F 26.4 °F 22.8 °F 71% 29.97 in 10.0 mi NW 4.6 mph - N/A   Clear
5:35 AM 32.0 °F 28.7 °F 22.8 °F 69% 29.98 in 10.0 mi SE 3.5 mph - N/A   Clear
5:55 AM 32.5 °F - 23.9 °F 70% 29.98 in 10.0 mi Calm Calm - N/A   Clear
6:15 AM 32.9 °F 29.8 °F 22.8 °F 66% 29.99 in 10.0 mi West 3.5 mph - N/A   Clear
6:35 AM 31.8 °F 27.3 °F 23.2 °F 70% 30.00 in 10.0 mi NW 4.6 mph - N/A   Clear
6:55 AM 33.8 °F 30.8 °F 23.7 °F 67% 30.01 in 10.0 mi North 3.5 mph - N/A   Clear
7:15 AM 34.5 °F - 24.8 °F 68% 30.01 in 10.0 mi Calm Calm - N/A   Clear
7:35 AM 35.8 °F 33.0 °F 25.0 °F 65% 30.01 in 10.0 mi East 3.5 mph - N/A   Clear
7:55 AM 37.9 °F 33.5 °F 24.4 °F 58% 30.01 in 10.0 mi North 5.8 mph - N/A   Clear
8:15 AM 39.2 °F 34.2 °F 24.3 °F 55% 30.00 in 10.0 mi NNW 6.9 mph - N/A   Clear
8:35 AM 40.1 °F 38.0 °F 23.5 °F 52% 30.01 in 10.0 mi NNW 3.5 mph - N/A   Clear
8:55 AM 41.2 °F 37.3 °F 23.2 °F 49% 30.01 in 10.0 mi WNW 5.8 mph - N/A   Clear
9:15 AM 41.7 °F 38.8 °F 23.5 °F 49% 30.01 in 10.0 mi West 4.6 mph - N/A   Clear
9:35 AM 43.0 °F 39.5 °F 23.2 °F 46% 30.00 in 10.0 mi West 5.8 mph - N/A   Clear
9:55 AM 44.1 °F 41.5 °F 23.4 °F 44% 30.00 in 10.0 mi WNW 4.6 mph - N/A   Clear
10:15 AM 46.9 °F - 21.4 °F 36% 30.00 in 10.0 mi WNW 8.1 mph - N/A   Clear
10:35 AM 47.3 °F - 19.6 °F 33% 30.00 in 10.0 mi WNW 10.4 mph 18.4 mph N/A   Clear
10:55 AM 47.5 °F - 16.2 °F 29% 29.99 in 10.0 mi NNW 10.4 mph - N/A   Clear
11:15 AM 48.9 °F - 15.8 °F 27% 29.99 in 10.0 mi North 8.1 mph - N/A   Clear
11:35 AM 49.3 °F - 16.0 °F 27% 29.98 in 10.0 mi North 10.4 mph 16.1 mph N/A   Clear
11:55 AM 49.8 °F - 14.2 °F 24% 29.97 in 10.0 mi NNE 10.4 mph - N/A   Clear
12:15 PM 49.8 °F - 13.8 °F 24% 29.96 in 10.0 mi WNW 8.1 mph - N/A   Clear
12:35 PM 49.3 °F - 13.8 °F 24% 29.96 in 10.0 mi West 3.5 mph - N/A   Clear
12:55 PM 50.7 °F - 12.0 °F 21% 29.95 in 10.0 mi WNW 3.5 mph - N/A   Clear
1:15 PM 51.6 °F - 13.3 °F 22% 29.94 in 10.0 mi West 5.8 mph - N/A   Clear
1:35 PM 52.9 °F - 14.5 °F 22% 29.93 in 10.0 mi NNE 6.9 mph - N/A   Clear
1:55 PM 53.1 °F - 11.8 °F 19% 29.92 in 10.0 mi SW 3.5 mph - N/A   Clear
2:15 PM 53.2 °F - 11.1 °F 19% 29.91 in 10.0 mi Calm Calm - N/A   Clear
2:35 PM 54.1 °F - 10.6 °F 18% 29.91 in 10.0 mi ENE 5.8 mph - N/A   Clear
2:55 PM 55.2 °F - 10.6 °F 17% 29.90 in 10.0 mi NNE 6.9 mph - N/A   Clear
3:15 PM 54.5 °F - 7.9 °F 15% 29.89 in 10.0 mi NW 3.5 mph - N/A   Clear
3:35 PM 54.9 °F - 8.4 °F 16% 29.88 in 10.0 mi Calm Calm - N/A   Clear
3:55 PM 55.0 °F - 7.2 °F 15% 29.87 in 10.0 mi NNE 4.6 mph - N/A   Clear
4:15 PM 55.9 °F - 7.0 °F 14% 29.86 in 10.0 mi Calm Calm - N/A   Clear
4:35 PM 56.3 °F - 7.0 °F 14% 29.85 in 10.0 mi NE 4.6 mph - N/A   Clear
4:55 PM 55.8 °F - 5.4 °F 13% 29.85 in 10.0 mi Calm Calm - N/A   Clear
5:15 PM 56.5 °F - 6.6 °F 14% 29.85 in 10.0 mi Calm Calm - N/A   Clear
5:35 PM 56.1 °F - 5.2 °F 13% 29.84 in 10.0 mi Calm Calm - N/A   Clear
5:55 PM 56.3 °F - 6.4 °F 14% 29.84 in 10.0 mi Calm Calm - N/A   Clear
6:15 PM 55.0 °F - 7.5 °F 15% 29.83 in 10.0 mi Calm Calm - N/A   Clear
6:35 PM 55.2 °F - 7.0 °F 14% 29.83 in 10.0 mi Calm Calm - N/A   Clear
6:55 PM 54.5 °F - 9.7 °F 17% 29.82 in 10.0 mi Calm Calm - N/A   Clear
7:15 PM 53.6 °F - 8.8 °F 17% 29.81 in 10.0 mi NE 4.6 mph - N/A   Clear
7:35 PM 53.1 °F - 8.8 °F 17% 29.80 in 10.0 mi NE 4.6 mph - N/A   Clear
7:55 PM 52.7 °F - 11.3 °F 19% 29.81 in 10.0 mi NNE 3.5 mph - N/A   Clear
8:15 PM 51.8 °F - 10.9 °F 19% 29.81 in 10.0 mi NNE 4.6 mph - N/A   Clear
8:35 PM 52.3 °F - 10.6 °F 19% 29.81 in 10.0 mi Calm Calm - N/A   Clear
8:55 PM 51.1 °F - 15.3 °F 24% 29.82 in 10.0 mi North 3.5 mph - N/A   Clear
9:15 PM 50.0 °F - 15.4 °F 25% 29.82 in 10.0 mi Calm Calm - N/A   Mostly Cloudy
9:35 PM 50.4 °F - 13.6 °F 23% 29.82 in 10.0 mi Calm Calm - N/A   Overcast
9:55 PM 50.0 °F - 18.5 °F 29% 29.81 in 10.0 mi NNE 4.6 mph - N/A   Overcast
10:15 PM 49.6 °F - 18.0 °F 29% 29.82 in 10.0 mi Calm Calm - N/A   Overcast
10:35 PM 50.5 °F - 15.1 °F 24% 29.81 in 10.0 mi NNE 5.8 mph - N/A   Overcast
10:55 PM 50.0 °F - 15.4 °F 25% 29.81 in 10.0 mi NNE 4.6 mph - N/A   Overcast
11:15 PM 47.8 °F - 19.2 °F 32% 29.81 in 10.0 mi Calm Calm - N/A   Overcast
11:35 PM 49.5 °F - 18.3 °F 29% 29.80 in 10.0 mi NNE 3.5 mph - N/A   Overcast